This is the latest recevied weather packets stored in our database for station/object N4CRH-13. If no packets are shown the sender has not sent any weather packets the latest 10 day(s).
| Time | Temp. | Humidity | Pressure | Rain* | Wind** | Luminosity | Snow |
|---|---|---|---|---|---|---|---|
| 1778032483 | -1.67° C | 99% | 1290.4 hPa | 0 mm | - | 2 W/m² | - |
| 1778032180 | -1.67° C | 99% | 1290.7 hPa | 0 mm | - | 4 W/m² | - |
| 1778031878 | -1.67° C | 99% | 1290.6 hPa | 0 mm | - | 9 W/m² | - |
| 1778031574 | -1.67° C | 99% | 1290.3 hPa | 0 mm | - | 10 W/m² | - |
| 1778031272 | -2.22° C | 99% | 1290.3 hPa | 0 mm | - | 9 W/m² | - |
| 1778030968 | -2.22° C | 99% | 1290.1 hPa | 0 mm | - | 11 W/m² | - |
| 1778030665 | -1.67° C | 99% | 1290.1 hPa | 0 mm | - | 11 W/m² | - |
| 1778030362 | -1.67° C | 99% | 1290.2 hPa | 0 mm | - | 9 W/m² | - |
| 1778030059 | -1.67° C | 99% | 1290.1 hPa | 0 mm | - | 9 W/m² | - |
| 1778029756 | -1.67° C | 99% | 1290.3 hPa | 0 mm | - | 7 W/m² | - |
| 1778029455 | -1.67° C | 99% | 1290.1 hPa | 0 mm | - | 11 W/m² | - |
| 1778029150 | -1.67° C | 99% | 1290.2 hPa | 0 mm | - | 13 W/m² | - |
| 1778028849 | -1.67° C | 99% | 1290 hPa | 0 mm | - | 18 W/m² | - |
| 1778028543 | -1.11° C | 99% | 1290.1 hPa | 0 mm | - | 21 W/m² | - |
| 1778028242 | -1.11° C | 99% | 1290.1 hPa | 0 mm | - | 19 W/m² | - |
| 1778027937 | -1.11° C | 99% | 1290.1 hPa | 0 mm | - | 16 W/m² | - |
| 1778027633 | -1.11° C | 99% | 1290.1 hPa | 0 mm | - | 12 W/m² | - |
| 1778027329 | -1.11° C | 99% | 1290.1 hPa | 0 mm | - | 12 W/m² | - |
| 1778027026 | -1.11° C | 99% | 1289.8 hPa | 0 mm | - | 10 W/m² | - |
| 1778026722 | -0.56° C | 99% | 1289.8 hPa | 0 mm | - | 11 W/m² | - |
| 1778026419 | -0.56° C | 99% | 1290 hPa | 0 mm | - | 11 W/m² | - |
| 1778026116 | 0° C | 99% | 1289.8 hPa | 0 mm | - | 7 W/m² | - |
| 1778025814 | 0° C | 99% | 1289.8 hPa | 0 mm | - | 7 W/m² | - |
| 1778025511 | 0° C | 99% | 1289.4 hPa | 0 mm | - | 8 W/m² | - |
| 1778025207 | 0° C | 99% | 1289.5 hPa | 0 mm | - | 13 W/m² | - |
* Rain latest hour (hover to see other rain measurements)
** Current wind speed in m/s (hover to see current wind gust speed)